Weather History for York, PA

Change the Weather History Date:

Thursday, March 20, 2014

  Actual Average Record
Temperature  
Mean Temperature 44 °F -  
Max Temperature 53 °F 0 °F 73 °F (2012)
Min Temperature 37 °F - 19 °F (2001)
Degree Days  
Heating Degree Days 20    
Moisture  
Dew Point 32 °F    
Average Humidity 72    
Maximum Humidity 100    
Minimum Humidity 32    
Precipitation  
Precipitation 0.00 in - - ()
Sea Level Pressure  
Sea Level Pressure 29.85 in    
Wind  
Wind Speed 6 mph (West)    
Max Wind Speed 24 mph    
Max Gust Speed 34 mph    
Visibility 7 miles    
Events      
Averages and records for this station are not official NWS values.
T = Trace of Precipitation, MM = Missing Value Source: NWS Daily Summary

Daily Weather History Graph

Daily Weather History Graph

Search for Another Location

Airport:

Trip Planner

Search our weather history database for the weather conditions in past years. The results will help you decide how hot, cold, wet, or windy it might be!

Date:

Astronomy

Mar. 20, 2014 Rise Set
Actual Time 7:10 AM EDT 7:19 PM EDT
Civil Twilight 6:43 AM EDT 7:46 PM EDT
Nautical Twilight 6:12 AM EDT 8:18 PM EDT
Astronomical Twilight 5:40 AM EDT 8:50 PM EDT
Moon 11:37 PM EDT (3/20) 9:15 AM EDT (3/20)
Length of Visible Light 13h 02m
Length of Day
12h 08m
Waning Gibbous, 84% of the Moon is Illuminated
Mar 20
Waning Gibbous
Mar 23
Last Quarter
Mar 30
New
Apr 7
First Quarter
Apr 15
Full

Hourly Weather History & Observations

Time (EDT) Temp. Windchill Dew Point Humidity Pressure Visibility Wind Dir Wind Speed Gust Speed Precip Events Conditions
12:39 AM 41.0 °F 37.1 °F 39.0 °F 93% 29.82 in 7.0 mi SW 5.8 mph - 0.00 in   Overcast
12:53 AM 41.0 °F 38.0 °F 39.0 °F 93% 29.84 in 6.0 mi WSW 4.6 mph - 0.00 in   Overcast
1:53 AM 41.0 °F 39.0 °F 39.9 °F 96% 29.82 in 5.0 mi NW 3.5 mph - N/A   Overcast
2:39 AM 39.9 °F 35.8 °F 39.0 °F 97% 29.79 in 4.0 mi WNW 5.8 mph - N/A   Overcast
2:53 AM 41.0 °F 35.2 °F 39.0 °F 93% 29.82 in 4.0 mi NW 9.2 mph - N/A   Overcast
3:09 AM 41.0 °F 36.4 °F 39.9 °F 96% 29.80 in 2.0 mi West 6.9 mph - N/A   Overcast
3:19 AM 41.0 °F 39.0 °F 39.9 °F 96% 29.79 in 1.2 mi West 3.5 mph - N/A   Overcast
3:29 AM 41.0 °F 39.0 °F 39.9 °F 96% 29.79 in 1.0 mi Variable 3.5 mph - N/A   Overcast
3:48 AM 39.2 °F - 39.2 °F 100% 29.78 in 1.8 mi Calm Calm - N/A   Overcast
3:53 AM 39.9 °F 37.8 °F 39.0 °F 97% 29.80 in 2.0 mi WSW 3.5 mph - N/A   Overcast
4:01 AM 39.9 °F - 37.9 °F 93% 29.78 in 1.5 mi Calm Calm - N/A   Overcast
4:10 AM 39.9 °F - 39.0 °F 97% 29.78 in 0.8 mi Calm Calm - N/A   Overcast
4:29 AM 37.0 °F - 37.0 °F 100% 29.78 in 1.2 mi Calm Calm - N/A   Mostly Cloudy
4:36 AM 37.0 °F - 36.0 °F 96% 29.78 in 2.0 mi Calm Calm - N/A   Scattered Clouds
4:40 AM 37.9 °F - 36.0 °F 93% 29.78 in 4.0 mi Calm Calm - N/A   Partly Cloudy
4:53 AM 39.0 °F 36.8 °F 37.0 °F 93% 29.80 in 8.0 mi Variable 3.5 mph - N/A   Clear
5:53 AM 39.9 °F 37.8 °F 36.0 °F 86% 29.81 in 10.0 mi West 3.5 mph - N/A   Clear
6:53 AM 37.9 °F - 35.1 °F 89% 29.83 in 9.0 mi Calm Calm - N/A   Clear
7:53 AM 39.9 °F - 34.0 °F 79% 29.85 in 10.0 mi Calm Calm - N/A   Partly Cloudy
8:53 AM 46.9 °F - 33.1 °F 59% 29.86 in 10.0 mi West 8.1 mph 19.6 mph N/A   Clear
9:53 AM 48.0 °F - 32.0 °F 54% 29.87 in 10.0 mi West 12.7 mph 21.9 mph N/A   Partly Cloudy
10:53 AM 46.9 °F - 28.0 °F 48% 29.88 in 10.0 mi West 13.8 mph 33.4 mph N/A   Scattered Clouds
11:53 AM 48.9 °F - 30.0 °F 48% 29.88 in 10.0 mi WNW 17.3 mph 29.9 mph N/A   Mostly Cloudy
12:53 PM 48.9 °F - 25.0 °F 39% 29.88 in 10.0 mi West 24.2 mph 34.5 mph N/A   Partly Cloudy
1:53 PM 51.1 °F - 25.0 °F 36% 29.87 in 10.0 mi West 20.7 mph 28.8 mph N/A   Clear
2:53 PM 52.0 °F - 25.0 °F 35% 29.87 in 10.0 mi West 12.7 mph 24.2 mph N/A   Scattered Clouds
3:53 PM 51.1 °F - 21.9 °F 32% 29.88 in 10.0 mi West 15.0 mph 23.0 mph N/A   Clear
4:53 PM 50.0 °F - 23.0 °F 35% 29.89 in 10.0 mi West 18.4 mph 29.9 mph N/A   Partly Cloudy
5:53 PM 48.9 °F - 25.0 °F 39% 29.90 in 10.0 mi WNW 12.7 mph - N/A   Partly Cloudy
6:53 PM 46.0 °F 39.6 °F 24.1 °F 42% 29.94 in 10.0 mi WNW 15.0 mph 23.0 mph N/A   Partly Cloudy
7:53 PM 43.0 °F 36.0 °F 23.0 °F 45% 29.98 in 10.0 mi WNW 13.8 mph 24.2 mph N/A   Clear
8:53 PM 39.9 °F 33.9 °F 24.1 °F 53% 29.99 in 10.0 mi WNW 9.2 mph - N/A   Partly Cloudy
9:53 PM 39.9 °F 37.8 °F 24.1 °F 53% 30.00 in 10.0 mi West 3.5 mph - N/A   Mostly Cloudy
10:53 PM 41.0 °F 36.4 °F 24.1 °F 51% 29.99 in 10.0 mi West 6.9 mph - N/A   Scattered Clouds
11:53 PM 39.9 °F 35.1 °F 24.1 °F 53% 29.99 in 10.0 mi WNW 6.9 mph - N/A   Scattered Clouds